This demonstration page uses our WeatherBlox Daily Observations layout. Learn more.

Left ArrowRight Arrow

Hourly Observations for December 5, 2020

Temp ( °F °C ) Dew Point ( °F °C ) Humidity (%) Winds ( mph kmh ) Pressure ( in mb ) Visibility ( mi km ) Precip ( " mm )
12:53 am 00:53 Clear 33 0.6 30 -1.1 89 89 WNW 3 6 30.01 1016 10 16 0.00 0.00
1:53 am 01:53 Clear 29 -1.7 27 -2.8 92 92 Calm 30.02 1017 10 16 0.00 0.00
2:53 am 02:53 Clear 28 -2.2 26 -3.3 92 92 W 3 6 30.04 1017 9 14 0.00 0.00
3:53 am 03:53 Clear 28 -2.2 27 -2.8 96 96 W 3 6 30.04 1017 8 13 0.00 0.00
4:53 am 04:53 Clear with Mist and Fog 27 -2.8 24 -4.4 89 89 Calm 30.06 1018 4 6 0.00 0.00
5:53 am 05:53 Clear with Mist and Fog 24 -4.4 22 -5.6 91 91 Calm 30.08 1019 5 8 0.00 0.00
6:04 am 06:04 Clear with Mist and Fog 24 -4.4 22 -5.6 91 91 Calm 30.12 1020 2 3 0.00 0.00
6:18 am 06:18 Clear with Mist and Fog 23 -5 21 -6.1 92 92 Calm 30.13 1020 5 8 0.00 0.00
6:53 am 06:53 Mostly Clear with Mist and Fog 23 -5 21 -6.1 92 92 Calm 30.10 1019 5 8 0.00 0.00
7:53 am 07:53 Cloudy with Mist and Fog 27 -2.8 25 -3.9 92 92 Calm 30.12 1020 5 8 0.00 0.00
8:53 am 08:53 Mostly Cloudy with Mist and Fog 30 -1.1 28 -2.2 92 92 Calm 30.13 1020 4 6 0.00 0.00
9:53 am 09:53 Mostly Sunny 37 2.8 31 -0.6 79 79 WNW 6 9 30.15 1021 8 13 0.00 0.00
10:53 am 10:53 Sunny 38 3.3 31 -0.6 76 76 WNW 5 7 30.16 1021 10 16 0.00 0.00
11:53 am 11:53 Sunny 42 5.6 31 -0.6 65 65 WNW 7 11 30.14 1021 10 16 0.00 0.00
12:38 pm 12:38 Mostly Cloudy 44 6.7 32 0 63 63 NW 7 11 30.14 1021 10 16 0.00 0.00
12:53 pm 12:53 Cloudy 43 6.1 31 -0.6 63 63 NW 8 13 30.13 1020 10 16 0.00 0.00
1:12 pm 13:12 Cloudy 43 6.1 31 -0.6 63 63 NW 8 13 30.14 1021 10 16 0.00 0.00
1:53 pm 13:53 Mostly Cloudy 45 7.2 30 -1.1 56 56 NNW 7 11 30.12 1020 10 16 0.00 0.00
2:53 pm 14:53 Mostly Cloudy 42 5.6 29 -1.7 60 60 NW 9 15 30.12 1020 10 16 0.00 0.00
3:53 pm 15:53 Mostly Cloudy 42 5.6 29 -1.7 60 60 NNW 10 17 30.13 1020 10 16 0.00 0.00
4:53 pm 16:53 Mostly Cloudy 39 3.9 29 -1.7 67 67 N 7 11 30.14 1021 10 16 0.00 0.00
5:53 pm 17:53 Cloudy 37 2.8 28 -2.2 70 70 N 7 11 30.14 1021 10 16 0.00 0.00
6:53 pm 18:53 Cloudy 36 2.2 27 -2.8 70 70 NNW 7 11 30.14 1021 10 16 0.00 0.00
7:53 pm 19:53 Mostly Clear 33 0.6 25 -3.9 72 72 NNW 5 7 30.14 1021 10 16 0.00 0.00
8:53 pm 20:53 Clear 29 -1.7 23 -5 78 78 N 5 7 30.15 1021 10 16 0.00 0.00
9:53 pm 21:53 Clear 26 -3.3 22 -5.6 84 84 Calm 30.15 1021 10 16 0.00 0.00
10:53 pm 22:53 Clear 23 -5 20 -6.7 88 88 Calm 30.14 1021 10 16 0.00 0.00
11:53 pm 23:53 Clear 23 -5 20 -6.7 88 88 Calm 30.15 1021 10 16 0.00 0.00

Powered by AerisWeather